Location: Kapla
(46.2483°N, 15.0094°E)
Time: 07:21:24
(UTC+00:00)

SJ-6B - Pass Details

Date: 03 March 2021
Orbit: 509 x 581 km, 97.6° (Epoch: 18 April)

Event Time Altitude Azimuth Distance (km) Brightness Sun altitude
Exits shadow 19:22:08 32° 229° (SW) 993 4.3 -26.9°
Maximum altitude 19:23:09 38° 262° (W) 890 4.2 -27.0°
Drops below altitude 10° 19:26:58 10° 332° (NNW) 1,879 6.1 -27.6°
Sets 19:29:13 0° 340° (NNW) 2,770 7.0 -28.0°
